Погода в Лубянках

Россия / Орловская область     52°33′29″N   35°24′32″E
темп.,
°C
ветер,
м/с
пор.,
м/с
влажн.,
%
обл.,
%
осадки,
мм/ч
давл.,
гПа
погр.,
м
13 апреля, вт
вт1300:00+11юв5127772 0.0 1022197
03:00+10юв478293 0.0 102389
06:00+9юв348596 0.0 102362
09:00+13юв587327 0.0 1022343
12:00+17ююв71151100 0.0 10221362
15:00+17ююв585599 0.0 10211362
18:00+15ю4868100 0.1 1020273
21:00+13ююв387764 0.1 1020204
14 апреля, ср
ср1400:00+11ююв37818 0.0 1020151
03:00+9ююв379095 0.0 1020131
06:00+9юв369082 0.0 1019152
09:00+12юв367979 0.0 1018366
12:00+16юв356499 0.1 10171271
15:00+14ю6872100 1.4 1016585
18:00+12ююв398397 0.8 1016651
21:00+10юв368993 0.8 1016130
15 апреля, чт
чт1500:00+9ю239089 0.0 101654
03:00+8юв2290100 0.0 101620
06:00+9юв2589100 0.1 1015125
09:00+9в3687100 0.4 1015176
12:00+9ююв3693100 1.3 1015303
15:00+9в3694100 4.6 1014250
18:00+11юв35815 0.1 1014503
21:00+8в22905 0.1 101425
16 апреля, пт
пт1600:00+7в339164 0.0 101438
03:00+8в2289100 0.0 101318
06:00+7всв3693100 0.0 1013131
09:00+9ююв238786 0.0 1014166
12:00+10ю248373 0.0 1015330
15:00+14вюв456347 1.0 10151159
18:00+13в3572100 1.3 1015206
21:00+10ю227858 1.9 101621
17 апреля, сб
сб1700:00+9с348495 0.0 101763
03:00+9св3698100 0.8 1017214
06:00+9св51094100 0.8 1018552
09:00+9всв71191100 1.0 1019626
12:00+10св81385100 0.1 1020934
15:00+10всв91379100 0.3 10211069
18:00+10всв71373100 0.0 10221146
21:00+9всв7156390 0.1 1024597